DELTA 2 R/B(1) (20303 NORAD) Tracking and Keplerian Element Data

This shows tracking and keplerian element data for the satellite.

Feedback or suggestion? Click here.




ElementValue
Catalog20303
NameDELTA 2 R/B(1)
Epoch Orbit84747
Epoch Day239.06889747
Epoch Year2023
RAAN142.9697
Inclination35.6276
Eccentricity0.0036945
Argument of Perigee255.168
Mean Anonmoly104.4968
Mean Motion15.75650595
Decay Rate0.00131394
L11 20303U 89085B 23239.06889747 .00131394 00000+0 78004-3 0 9998
L22 20303 35.6276 142.9697 0036945 255.1680 104.4968 15.75650595847471



Live tracking and technical data element details for DELTA 2 R/B(1) (NORAD 20303). DELTA 2 R/B(1) can be tracked NOW for your location showing map with azimuth and elevation plus other details from your city location.







IsCatalogInMostPopularTable: catalog: 20303, numindb: 159
Update: records affected: 1



GetName: 20303 DELTA 2 R/B(1)

Hit Count: updated at: Mon, 15 Apr 2024 00:31:24 GMT